Hourly Data Report for October 05, 2017

All times are specified in Local Standard Time (LST). Add 1 hour to adjust for Daylight Saving Time where and when it is observed.

GILLAM A
MANITOBA

56°21'28.000" N
94°42'39.000" W
145.10 m
5061022
71912
YGX

Download Data

Hourly Data (October 2017)
Hourly Data Report for October 5, 2017
Temp Definition
°C
Dew Point Temp Definition
°C
Rel Hum Definition
%
Wind Dir Definition
10's deg

Wind Spd Definition
km/h
Visibility Definition
km
Stn Press Definition
kPa
Hmdx Definition


Wind Chill Definition


Weather Definition


TIME
00:00 Legend Double Dagger 1.1 -5.2 63 32 27 24.1 99.68     Cloudy
01:00 Legend Double Dagger 1.0 -5.0 64 32 27 24.1 99.67     LegendNANA
02:00 Legend Double Dagger 1.0 -4.7 66 31 28 24.1 99.62     LegendNANA
03:00 Legend Double Dagger 0.9 -4.7 66 31 27 24.1 99.58     Mostly Cloudy
04:00 Legend Double Dagger 1.1 -4.2 68 27 22 24.1 99.54     LegendNANA
05:00 Legend Double Dagger -0.2 -4.1 75 25 21 24.1 99.53   -6 LegendNANA
06:00 Legend Double Dagger 0.6 -3.7 73 30 33 24.1 99.46     Cloudy
07:00 Legend Double Dagger 0.6 -3.3 75 31 39 24.1 99.41     LegendNANA
08:00 Legend Double Dagger 0.7 -3.0 76 29 31 24.1 99.40     LegendNANA
09:00 Legend Double Dagger 0.9 -3.1 75 30 24 24.1 99.37     Mostly Cloudy
10:00 Legend Double Dagger 1.4 -2.9 73 30 23 24.1 99.34     LegendNANA
11:00 Legend Double Dagger 3.5 -2.5 65 28 26 24.1 99.30     LegendNANA
12:00 Legend Double Dagger 4.6 -3.3 57 28 32 24.1 99.23     Mainly Clear
13:00 Legend Double Dagger 6.0 -3.9 49 29 29 24.1 99.19     LegendNANA
14:00 Legend Double Dagger 7.3 -3.4 46 30 24 24.1 99.15     LegendNANA
15:00 Legend Double Dagger 7.7 -5.7 38 30 28 24.1 99.13     Clear
16:00 Legend Double Dagger 8.1 -3.5 44 29 25 24.1 99.12     LegendNANA
17:00 Legend Double Dagger 7.9 -3.2 45 29 24 24.1 99.07     LegendNANA
18:00 Legend Double Dagger 6.5 -3.0 50 27 15 24.1 99.06     Clear
19:00 Legend Double Dagger 5.1 -2.2 59 25 15 24.1 99.04     LegendNANA
20:00 Legend Double Dagger 3.8 -2.5 64 24 13 24.1 99.01     LegendNANA
21:00 Legend Double Dagger 1.6 -4.0 66 22 12 24.1 98.97     Clear
22:00 Legend Double Dagger 0.8 -3.6 72 24 14 24.1 98.90     LegendNANA
23:00 Legend Double Dagger 0.3 -3.3 77 24 12 24.1 98.84     LegendNANA

Notes on Data Quality.

Legend

  • E = Estimated
  • M = Missing
  • NA = Not Available
  • ‡ = Partner data that is not subject to review by the National Climate Archives
Date modified: